Flag for U.S.A. Weather past 2 weeks in Sevierville, Tennessee, U.S.A.

Now
79 °F

Mostly cloudy.


Feels Like: 80 °F
Forecast: 65 / 81 °F
Wind: 7 mph from Northwest

Location: McGhee Tyson Airport

Current Time: May 28, 2015 at 12:33:41 PM

Latest Report: May 28, 2015 at 11:53 AM


Visibility: 10 mi

Pressure: 30.19 "Hg

Humidity: 52%

Dew point: 60 °F

Location of SeviervilleLocation

Historic Weather in Sevierville — Graph

°F

Sevierville temperature yesterday

Maximum temperature yesterday: 82 °F (at 3:53 PM)
Minimum temperature yesterday: 65 °F (at 5:53 AM)
Average temperature yesterday: 74 °F

Past Weeks' High & Low Weather Summary

 TemperatureHumidityPressure
High88 °F (May 26, 3:53 PM)97% (May 19, 2:53 AM)30.39 "Hg (May 19, 2:53 AM)
Low48 °F (May 22, 4:53 AM)25% (May 13, 5:53 PM)29.81 "Hg (May 21, 3:53 AM)
Average71 °F65%30.15 "Hg
* Reported May 13 10:53 AM — May 28 10:53 AM, Sevierville, Weather by CustomWeather, © 2015

Note: Actual official high and low records may vary slightly from our data, if they occured in-between our weather recording intervals... More about our weather records

Advertising

Sevierville weather history for previous 24 hours

 ConditionsComfort  
Time TempWeatherWind HumidityBarometerVisibility
10:53 AM
Thu, May 28
79 °FMostly cloudy.No wind56%30.19 "Hg10 mi
9:53 AM73 °FBroken clouds.3 mph71%30.20 "Hg10 mi
8:53 AM71 °FMostly cloudy.3 mph76%30.21 "Hg10 mi
7:53 AM69 °FOvercast.No wind79%30.20 "Hg10 mi
6:53 AM69 °FPassing clouds.No wind81%30.17 "Hg10 mi
5:53 AM68 °FOvercast.3 mph82%30.14 "Hg10 mi
4:53 AM69 °FPassing clouds.3 mph76%30.14 "Hg10 mi
3:53 AM70 °FPassing clouds.6 mph76%30.13 "Hg10 mi
2:53 AM71 °FPassing clouds.8 mph73%30.15 "Hg10 mi
1:53 AM71 °FMostly cloudy.6 mph73%30.15 "Hg10 mi
12:53 AM72 °FPassing clouds.7 mph71%30.16 "Hg10 mi
11:53 PM
Wed, May 27
73 °FMostly cloudy.3 mph69%30.16 "Hg10 mi
10:53 PM75 °FMostly cloudy.3 mph64%30.16 "Hg10 mi
9:53 PM77 °FMostly cloudy.No wind58%30.14 "Hg10 mi
8:53 PM78 °FMostly cloudy.5 mph56%30.13 "Hg10 mi
7:53 PM79 °FBroken clouds.5 mph52%30.14 "Hg10 mi
6:53 PM82 °FSunny.6 mph48%30.12 "Hg10 mi
5:53 PM82 °FPartly sunny.8 mph46%30.12 "Hg10 mi
4:53 PM82 °FBroken clouds.10 mph46%30.14 "Hg10 mi
3:53 PM82 °FBroken clouds.9 mph44%30.15 "Hg10 mi
2:53 PM79 °FScattered clouds.7 mph50%30.16 "Hg10 mi
1:53 PM80 °FBroken clouds.9 mph49%30.19 "Hg10 mi
12:53 PM78 °FBroken clouds.10 mph52%30.21 "Hg10 mi
Weather by CustomWeather, © 2015

See weather overviewHow to use our weather pages